Wind_Speed
17 17 17 18 18 18 17 17 15 13 13 9 7 6 6 6 1 4 2 3 3 5 5 5 6 2 3 2 3 3 3 5 6 9 5 4 8 5 3 11 14 7 9 13 18
16 17 17 17 18 17 16 14 12 12 12 9 6 4 5 4 5 8 4 3 4 5 10 5 4 5 3 1 2 2 4 7 6 8 5 7 9 4 3 13 8 9 13 16 15
18 18 18 18 18 17 15 12 12 12 10 8 4 3 3 3 5 5 2 3 4 5 7 5 5 5 3 2 4 6 6 6 10 9 9 5 14 13 10 8 7 7 9 11 13
18 18 17 17 17 15 13 12 13 12 9 5 3 2 1 1 3 3 2 4 5 7 8 4 4 1 2 3 2 3 6 6 5 4 7 7 8 11 11 4 8 6 6 11 8
19 19 18 17 16 13 12 12 11 10 5 3 4 3 1 3 6 3 4 5 5 5 7 6 4 2 1 3 3 7 5 1 6 1 1 0 8 10 9 6 7 8 8 5 6
20 20 19 17 12 12 11 8 7 5 0 5 6 3 2 3 2 2 2 3 5 6 5 9 6 6 4 4 4 4 1 5 2 5 1 7 8 5 8 7 9 10 10 9 10
20 19 18 13 11 12 7 7 6 4 4 7 6 3 4 6 2 2 2 2 4 6 2 6 7 6 4 2 1 3 5 7 6 6 5 13 10 7 6 8 9 10 9 9 11
20 19 14 11 14 5 5 6 7 8 8 7 4 0 4 1 3 2 2 2 1 2 4 4 6 3 4 4 3 4 5 6 4 7 1 1 6 6 6 8 9 10 9 8 10
19 16 12 11 9 3 5 7 10 9 8 5 0 3 5 4 2 3 3 3 1 1 1 3 4 3 2 4 5 7 5 6 5 2 4 7 8 7 8 8 9 9 9 8 9
17 14 11 10 4 3 3 3 5 5 3 2 7 2 2 3 2 1 1 2 3 2 5 4 4 3 4 6 2 4 6 4 7 3 2 11 9 7 7 9 9 9 9 9 9
15 13 9 8 3 3 0 2 3 3 10 6 7 8 6 4 2 2 1 3 3 5 3 4 3 1 9 8 7 8 7 6 8 3 2 8 8 7 7 7 8 8 9 9 9
13 12 8 6 5 2 4 3 3 3 6 5 5 7 3 4 2 5 5 4 2 4 1 3 1 6 5 4 5 5 5 2 6 4 2 8 7 7 8 6 8 9 9 9 9
10 11 6 4 5 7 8 4 1 4 3 3 2 4 2 6 6 7 10 4 5 4 1 6 5 3 3 1 4 5 5 5 4 5 6 8 7 8 7 8 8 9 9 9 10
9 9 5 1 2 1 4 3 3 3 4 4 3 3 2 2 3 4 6 2 3 5 5 3 3 2 1 4 4 4 6 3 2 3 2 8 0 8 9 8 8 8 8 8 9
7 9 7 4 2 1 1 2 2 2 3 1 4 2 1 2 2 2 2 4 5 6 2 3 1 1 4 4 4 3 3 2 3 5 6 7 2 5 10 8 8 7 8 9 9
2 10 3 3 4 1 2 1 1 3 2 4 2 2 5 1 2 2 1 3 1 4 5 4 1 3 4 3 3 1 4 5 3 3 3 10 8 7 5 12 7 8 8 8 9
2 6 6 5 3 3 3 3 2 3 1 5 2 1 1 2 4 2 5 6 4 4 5 5 5 4 2 4 3 3 4 2 2 2 3 6 3 5 8 10 11 9 8 8 8
3 3 6 5 4 2 4 3 4 3 4 2 1 3 4 1 3 1 3 4 9 6 4 3 2 4 2 2 3 6 2 2 3 2 1 2 3 5 9 10 10 9 8 8 8
4 2 1 5 3 2 3 4 3 4 2 1 3 4 5 3 2 4 5 4 4 7 4 5 4 4 5 3 3 2 2 3 4 6 2 5 5 5 9 8 8 8 8 7 7
2 3 3 5 2 3 3 5 2 4 2 2 3 1 2 5 3 3 4 2 2 5 6 3 3 1 3 2 3 3 2 1 2 3 4 4 6 3 9 9 8 8 8 7 7
1 2 2 2 1 3 2 5 5 3 4 4 4 1 4 2 4 1 5 3 6 6 6 5 3 3 3 1 4 1 2 4 1 2 2 3 2 6 8 10 9 8 8 7 7
4 1 5 2 2 2 3 4 3 3 2 2 2 4 4 1 2 1 3 6 6 5 5 5 3 4 4 3 0 1 4 2 1 5 3 2 2 6 4 10 8 10 8 6 6
2 2 3 2 1 4 4 3 5 2 4 2 2 4 2 1 1 2 6 3 6 5 3 5 3 4 4 3 1 1 3 3 3 1 4 1 0 4 3 8 10 10 8 6 5
1 2 1 1 1 4 5 5 3 4 2 2 3 2 2 3 1 3 5 2 2 5 4 3 4 4 3 1 1 2 5 3 2 1 4 3 5 4 2 6 7 8 7 7 7
3 2 0 2 3 4 3 4 6 3 2 2 2 2 2 2 2 3 4 4 2 2 2 3 4 4 6 7 3 6 7 6 5 6 3 3 5 3 6 5 6 8 6 6 6
1 3 2 2 2 7 1 3 6 3 3 2 2 3 1 4 6 3 3 3 5 1 3 2 2 6 4 4 2 7 7 6 5 5 6 6 4 6 7 6 6 5 5 4 5
0 1 0 0 2 2 2 5 6 8 3 5 5 4 8 5 5 5 5 4 4 4 3 3 3 1 3 1 4 7 2 8 3 2 3 2 4 2 1 3 2 4 5 6 6
Wind_Direction
338 337 336 334 333 334 334 333 332 329 324 325 319 318 323 334 196 184 58 33 355 338 325 297 268 327 301 97 288 281 278 88 13 71 85 168 108 59 265 93 60 61 70 111 135
337 335 333 331 330 328 326 324 323 322 319 315 314 314 323 339 260 74 56 36 7 10 349 314 31 281 108 175 270 251 59 60 36 36 83 49 50 90 189 71 51 84 92 117 137
335 334 332 330 326 321 316 319 316 312 307 304 291 290 319 339 259 75 39 15 15 359 325 328 290 300 86 306 340 346 100 125 58 15 347 97 69 43 28 49 27 3 125 138 160
333 331 329 326 322 319 320 318 313 309 301 272 252 232 287 50 94 69 53 23 22 353 296 282 254 270 295 95 353 124 47 18 107 42 356 33 70 70 51 13 31 17 18 143 176
333 332 330 328 326 329 325 321 321 317 314 231 197 191 124 185 64 19 31 1 357 327 13 343 325 322 219 90 242 88 100 75 96 120 66 38 41 88 39 10 48 38 33 18 177
335 335 334 331 334 335 326 335 334 327 347 176 166 174 293 136 90 35 24 344 7 337 25 2 20 346 22 28 329 59 54 100 122 121 126 88 46 56 1 13 46 58 42 35 13
337 335 334 338 341 335 346 4 7 33 120 149 159 124 308 96 85 40 33 27 7 1 29 23 353 299 5 147 71 172 153 134 140 151 121 119 58 46 344 47 50 58 51 57 29
338 338 344 351 342 355 32 44 62 83 112 138 149 234 63 110 112 27 238 122 17 44 44 350 337 338 301 75 223 216 256 168 128 160 199 310 100 52 10 61 52 56 49 48 45
341 347 349 352 354 59 82 84 89 96 114 131 269 226 105 149 176 6 341 328 54 206 330 313 276 316 144 231 197 220 245 162 143 334 144 194 124 69 19 54 56 51 42 37 44
349 352 351 357 42 101 118 110 114 95 76 300 279 216 171 82 44 306 23 329 294 305 237 222 228 229 222 223 295 265 218 87 115 81 96 73 99 77 50 51 54 49 40 31 38
1 2 358 6 72 122 124 256 208 174 43 33 27 90 102 109 188 108 344 238 231 231 263 179 273 334 42 30 349 338 7 36 95 29 39 107 103 92 72 52 58 52 41 31 33
5 4 2 28 84 96 314 347 54 354 102 100 116 87 49 337 168 85 304 267 194 280 91 229 174 57 57 23 331 332 305 109 80 149 233 140 122 102 95 78 64 61 50 43 30
6 5 19 55 83 61 71 62 14 351 189 73 16 60 14 309 29 45 354 359 304 276 319 309 73 41 12 306 294 226 329 17 64 168 261 156 154 143 118 106 83 61 63 45 48
1 8 23 101 69 140 64 5 358 354 204 140 165 86 197 331 112 8 359 333 224 355 347 36 67 348 210 251 21 332 5 351 90 194 259 169 204 164 142 109 78 69 56 57 42
17 15 49 60 9 36 356 329 327 276 237 8 97 24 176 345 105 90 275 249 4 1 291 59 138 221 276 36 351 101 330 344 311 284 309 195 254 117 141 126 100 79 73 61 56
353 21 36 28 65 91 357 10 330 232 159 120 121 183 183 129 101 164 199 173 338 281 215 84 101 313 32 82 25 57 257 219 256 236 253 223 176 173 189 141 121 99 79 74 63
239 22 53 23 19 328 107 218 230 280 278 139 118 241 344 108 127 3 76 51 18 312 196 164 168 111 264 226 170 226 273 238 251 199 248 12 136 117 104 111 116 109 93 79 69
174 53 39 26 355 47 244 224 258 39 46 54 187 213 235 153 124 150 226 172 57 347 298 291 206 167 142 358 6 221 347 300 296 33 138 270 189 143 96 89 94 98 100 83 71
125 77 131 330 350 35 266 236 41 44 43 202 173 237 158 178 300 196 49 50 58 13 349 346 109 100 44 347 6 84 199 346 309 279 249 143 88 84 122 126 131 117 97 85 84
306 226 99 327 351 274 258 80 80 34 339 236 245 308 264 133 232 226 147 12 33 30 341 30 273 257 108 256 205 246 342 306 234 270 261 199 122 116 167 158 142 131 114 102 87
252 244 36 352 328 236 320 56 100 58 349 343 1 334 7 55 301 91 67 68 10 326 309 348 244 155 161 185 20 219 222 235 239 264 258 322 85 352 177 161 155 128 112 104 90
294 233 343 33 240 341 70 35 332 87 24 29 339 7 2 14 238 61 90 39 350 308 340 69 324 300 78 78 347 311 339 327 229 330 324 158 214 331 110 137 139 120 112 101 98
289 78 44 313 216 106 124 87 48 143 15 20 80 350 346 48 319 39 85 28 359 21 27 354 229 289 134 146 216 67 39 355 341 249 245 308 165 8 27 114 118 123 133 123 110
298 183 119 90 211 111 163 152 114 8 96 48 90 275 206 158 37 125 125 97 352 22 328 297 293 286 305 27 69 204 181 136 4 299 328 313 137 142 90 122 117 120 122 120 99
10 90 264 83 58 65 47 145 138 134 48 300 125 323 331 172 187 131 56 141 144 352 251 358 276 312 324 314 261 266 287 293 246 266 247 358 4 49 159 155 147 133 131 121 112
139 145 159 69 317 121 114 157 168 108 358 133 309 90 290 15 38 44 12 8 46 91 354 43 289 351 279 220 12 277 272 270 268 282 297 297 301 37 34 51 85 121 153 116 124
58 67 334 268 163 244 58 115 126 126 53 23 102 140 97 77 25 28 30 58 44 339 354 316 322 334 270 148 294 270 270 207 108 37 22 295 75 71 99 313 187 251 152 191 118
Height
810 807 805 802 798 794 791 790 789 788 787 786 786 786 785 783 782 782 783 784 783 782 780 778 777 777 775 775 774 773 794 800 791 790 790 776 783 776 774 783 787 789 794 801 805
809 807 804 801 797 794 792 791 789 788 787 786 785 785 785 784 782 782 786 784 784 782 779 777 776 775 778 778 776 781 794 795 782 782 787 780 782 780 783 791 797 799 800 804 807
808 805 802 799 797 795 793 790 789 787 786 785 785 785 784 784 785 784 786 785 784 783 781 780 779 776 781 778 780 780 796 786 788 787 783 782 790 791 794 804 802 803 802 804 806
807 804 801 799 796 793 790 789 787 785 784 785 784 785 785 786 795 787 787 785 784 783 781 780 778 781 784 788 780 792 785 785 788 791 790 792 789 804 804 806 798 797 797 800 804
805 802 799 796 792 789 788 786 784 783 783 784 784 785 785 785 788 788 787 786 785 784 783 781 779 782 787 785 783 789 789 787 788 790 791 790 798 806 809 801 799 798 799 799 799
803 799 796 792 789 788 786 784 783 782 782 783 784 785 786 789 789 788 788 788 787 785 784 783 784 783 785 787 791 787 788 789 789 793 792 798 805 803 810 801 802 803 806 805 804
802 798 794 791 789 787 785 783 781 781 782 784 785 786 785 791 789 789 789 789 788 787 786 787 786 787 784 791 787 787 797 793 793 792 797 798 818 822 809 805 807 808 810 810 810
800 796 792 789 787 786 784 783 783 783 784 786 787 788 790 789 789 790 790 789 789 789 789 789 788 786 788 786 791 797 796 812 796 794 798 801 833 820 810 811 813 813 814 814 815
798 794 792 790 788 787 786 786 786 787 788 788 789 789 793 790 790 791 790 789 789 790 790 789 789 788 791 800 805 799 811 806 808 793 797 805 830 822 815 816 819 820 820 819 819
799 795 792 791 789 789 789 789 789 789 790 790 789 791 792 791 791 791 791 791 789 789 789 790 791 798 798 800 818 803 803 793 810 803 798 817 828 824 822 822 826 826 826 825 824
798 796 794 792 791 791 791 790 793 793 791 793 791 790 789 792 791 790 791 790 788 789 796 789 803 806 800 797 795 794 795 800 807 803 804 818 826 828 827 829 831 832 832 831 829
798 796 794 793 792 793 792 789 795 798 798 792 791 792 793 793 792 791 792 793 791 796 789 797 805 798 793 795 798 797 800 804 807 804 810 819 830 829 831 834 835 836 837 836 834
798 796 795 794 794 794 793 796 796 797 793 797 794 793 794 793 794 796 794 791 794 796 793 803 804 795 798 799 803 800 806 809 808 809 808 816 832 834 832 834 836 838 839 840 839
798 796 795 794 796 795 796 797 797 796 797 804 797 797 794 793 801 797 796 797 794 801 798 799 798 800 801 802 800 811 804 804 806 818 829 811 840 833 835 839 841 845 845 845 844
798 797 795 794 795 794 798 797 797 797 809 802 799 796 794 798 799 800 797 794 801 801 802 810 803 803 805 810 803 814 804 806 807 817 820 818 834 834 829 841 846 848 848 848 847
799 797 796 796 796 797 796 796 798 807 812 807 797 799 798 796 799 797 797 796 797 801 798 802 798 802 805 804 805 805 809 811 811 821 839 813 821 837 831 833 844 848 849 849 850
799 798 797 798 798 797 796 797 805 808 802 808 806 800 798 804 802 800 804 811 815 821 814 804 805 803 803 809 806 810 817 835 842 842 833 801 816 836 830 831 839 848 851 852 853
798 798 799 798 799 798 798 797 808 798 804 806 805 805 805 807 808 806 806 812 816 821 816 814 825 808 804 807 815 811 815 833 838 833 826 805 824 841 835 838 842 847 851 853 855
800 799 800 800 798 799 800 801 810 803 806 807 809 809 808 808 811 806 818 820 827 826 831 826 820 809 809 808 811 813 822 813 825 813 825 822 839 836 839 845 845 849 853 856 857
800 799 799 799 799 800 800 811 813 815 813 813 809 809 802 809 814 812 816 832 830 828 825 822 830 808 813 809 808 814 812 827 826 839 834 813 831 841 843 846 847 851 855 857 858
800 798 800 799 800 799 803 813 819 821 819 820 812 811 811 811 815 808 824 839 838 834 828 824 822 819 812 818 822 819 820 820 821 824 836 839 848 831 837 839 846 851 855 857 859
798 799 800 798 801 795 806 814 828 824 821 821 819 817 814 819 814 814 824 839 843 839 833 833 837 833 823 822 818 819 825 823 839 837 831 833 848 833 828 834 840 849 855 858 860
796 796 799 798 802 811 821 827 826 826 830 825 828 828 826 824 829 824 836 847 845 842 844 845 833 838 835 831 823 825 831 827 830 832 840 844 851 835 831 836 841 849 854 857 859
799 804 801 799 800 802 816 822 832 833 833 830 830 830 829 828 829 833 840 848 849 849 851 849 837 834 841 836 838 834 834 835 839 847 838 835 844 844 840 841 845 850 853 856 860
801 810 813 809 808 804 809 818 826 833 834 832 833 831 829 831 832 835 840 849 848 847 844 845 843 832 834 831 833 838 839 837 842 840 846 835 841 840 842 843 846 850 853 857 861
803 808 810 816 811 812 823 820 821 835 834 836 835 838 835 837 847 841 842 846 850 849 847 846 847 845 842 831 838 843 840 838 838 841 842 842 845 847 847 847 850 853 856 858 861
807 805 804 823 814 813 821 822 824 835 841 836 835 837 842 853 854 854 852 854 858 858 854 855 852 847 843 838 840 846 840 835 840 845 847 850 855 850 851 851 852 854 856 858 861